| time (UTC) | temp F | wind direction | speed knots | gust knots | rain 1hr in | rain 24hr in | rain mn in | humidity % | barometer mb |
| 20260502231942 | 54 | 220 | 0.9 | 5.2 | 0.00 | 0.00 | 0.00 | 42 | 1015.4 |
| 20260502231442 | 54 | 250 | 1.7 | 5.2 | 0.00 | 0.00 | 0.00 | 43 | 1015.4 |
| 20260502230944 | 54 | 244 | 1.7 | 5.2 | 0.00 | 0.00 | 0.00 | 43 | 1015.7 |
| 20260502230441 | 54 | 250 | 2.6 | 5.2 | 0.00 | 0.00 | 0.00 | 42 | 1015.7 |
| 20260502230200 | 54 | 281 | 1.7 | 5.2 | 0.00 | 0.00 | 0.00 | 41 | 1015.7 |
| 20260502225442 | 55 | 181 | 1.7 | 4.3 | 0.00 | 0.00 | 0.00 | 40 | 1015.7 |
| 20260502224938 | 55 | 201 | 0.9 | 5.2 | 0.00 | 0.00 | 0.00 | 40 | 1015.7 |
| 20260502224440 | 54 | 232 | 2.6 | 5.2 | 0.00 | 0.00 | 0.00 | 39 | 1015.7 |
| 20260502223939 | 55 | 158 | 0.9 | 5.2 | 0.00 | 0.00 | 0.00 | 41 | 1015.7 |
| 20260502223437 | 55 | 222 | 2.6 | 5.2 | 0.00 | 0.00 | 0.00 | 40 | 1015.7 |
| 20260502222937 | 55 | 291 | 1.7 | 3.5 | 0.00 | 0.00 | 0.00 | 39 | 1015.7 |
| 20260502222436 | 55 | 357 | 2.6 | 4.3 | 0.00 | 0.00 | 0.00 | 39 | 1015.7 |
| 20260502221937 | 55 | 313 | 1.7 | 7.8 | 0.00 | 0.00 | 0.00 | 39 | 1015.7 |
| 20260502221436 | 55 | 218 | 3.5 | 7.8 | 0.00 | 0.00 | 0.00 | 40 | 1015.7 |
| 20260502220935 | 55 | 272 | 2.6 | 6.1 | 0.00 | 0.00 | 0.00 | 39 | 1015.7 |
| 20260502220701 | 55 | 158 | 1.7 | 6.1 | 0.00 | 0.00 | 0.00 | 40 | 1015.7 |
| 20260502215935 | 55 | 319 | 1.7 | 5.2 | 0.00 | 0.00 | 0.00 | 42 | 1015.7 |
| 20260502215434 | 54 | 213 | 2.6 | 5.2 | 0.00 | 0.00 | 0.00 | 41 | 1015.7 |
| 20260502214931 | 54 | 305 | 2.6 | 3.5 | 0.00 | 0.00 | 0.00 | 43 | 1016.0 |
| 20260502214433 | 53 | 228 | 3.5 | 5.2 | 0.00 | 0.00 | 0.00 | 46 | 1016.0 |
| 20260502213932 | 53 | 227 | 3.5 | 5.2 | 0.00 | 0.00 | 0.00 | 42 | 1016.0 |
| 20260502213431 | 53 | 244 | 2.6 | 6.1 | 0.00 | 0.00 | 0.00 | 43 | 1016.0 |
| 20260502212930 | 53 | 243 | 1.7 | 6.1 | 0.00 | 0.00 | 0.00 | 42 | 1016.0 |
| 20260502212657 | 53 | 284 | 0.9 | 4.3 | 0.00 | 0.00 | 0.00 | 43 | 1016.0 |
| 20260502211928 | 54 | 283 | 1.7 | 4.3 | 0.00 | 0.00 | 0.00 | 42 | 1016.0 |
| 20260502211430 | 54 | 199 | 1.7 | 4.3 | 0.00 | 0.00 | 0.00 | 43 | 1016.4 |
| 20260502210927 | 54 | 243 | 1.7 | 5.2 | 0.00 | 0.00 | 0.00 | 45 | 1016.0 |
| 20260502210428 | 54 | 337 | 1.7 | 5.2 | 0.00 | 0.00 | 0.00 | 41 | 1016.4 |
| 20260502210151 | 54 | 293 | 1.7 | 4.3 | 0.00 | 0.00 | 0.00 | 40 | 1016.4 |
| 20260502205431 | 54 | 331 | 1.7 | 4.3 | 0.00 | 0.00 | 0.00 | 45 | 1016.4 |
| 20260502204925 | 53 | 345 | 1.7 | 4.3 | 0.00 | 0.00 | 0.00 | 43 | 1016.4 |
| 20260502204431 | 53 | 354 | 1.7 | 3.5 | 0.00 | 0.00 | 0.00 | 43 | 1016.4 |
| 20260502203925 | 53 | 162 | 1.7 | 3.5 | 0.00 | 0.00 | 0.00 | 45 | 1016.4 |
| 20260502203427 | 53 | 286 | 1.7 | 5.2 | 0.00 | 0.00 | 0.00 | 42 | 1016.4 |
| 20260502202924 | 53 | 310 | 1.7 | 5.2 | 0.00 | 0.00 | 0.00 | 43 | 1016.7 |
| 20260502202423 | 53 | 292 | 0.0 | 5.2 | 0.00 | 0.00 | 0.00 | 44 | 1016.7 |
| 20260502201922 | 54 | 224 | 1.7 | 7.0 | 0.00 | 0.00 | 0.00 | 45 | 1016.7 |
| 20260502201423 | 54 | 346 | 2.6 | 7.0 | 0.00 | 0.00 | 0.00 | 46 | 1016.7 |
| 20260502200921 | 54 | 340 | 0.0 | 7.0 | 0.00 | 0.00 | 0.00 | 43 | 1017.1 |
| 20260502200422 | 54 | 241 | 3.5 | 7.0 | 0.00 | 0.00 | 0.00 | 44 | 1017.1 |
| 20260502195921 | 54 | 212 | 2.6 | 5.2 | 0.00 | 0.00 | 0.00 | 43 | 1016.7 |
| 20260502195641 | 54 | 260 | 1.7 | 5.2 | 0.00 | 0.00 | 0.00 | 43 | 1017.1 |
| 20260502194919 | 54 | 190 | 1.7 | 8.7 | 0.00 | 0.00 | 0.00 | 39 | 1017.1 |
| 20260502194421 | 54 | 236 | 1.7 | 8.7 | 0.00 | 0.00 | 0.00 | 48 | 1017.1 |
| 20260502193917 | 54 | 234 | 5.2 | 8.7 | 0.00 | 0.00 | 0.00 | 41 | 1017.1 |
| 20260502193423 | 54 | 257 | 0.0 | 5.2 | 0.00 | 0.00 | 0.00 | 43 | 1017.1 |
| 20260502192917 | 54 | 210 | 5.2 | 5.2 | 0.00 | 0.00 | 0.00 | 44 | 1017.1 |
| 20260502192418 | 53 | 281 | 3.5 | 5.2 | 0.00 | 0.00 | 0.00 | 49 | 1017.1 |
| 20260502191918 | 52 | 323 | 3.5 | 5.2 | 0.00 | 0.00 | 0.00 | 46 | 1017.5 |
| 20260502191417 | 53 | 0 | 0.9 | 6.1 | 0.00 | 0.00 | 0.00 | 46 | 1017.5 |
| 20260502190915 | 53 | 322 | 1.7 | 6.1 | 0.00 | 0.00 | 0.00 | 42 | 1017.5 |
| 20260502190644 | 54 | 288 | 2.6 | 6.1 | 0.00 | 0.00 | 0.00 | 50 | 1017.5 |
| 20260502185915 | 53 | 337 | 3.5 | 4.3 | 0.00 | 0.00 | 0.00 | 52 | 1017.5 |
| 20260502185414 | 51 | 34 | 1.7 | 4.3 | 0.00 | 0.00 | 0.00 | 47 | 1017.8 |
| 20260502184913 | 51 | 337 | 0.9 | 4.3 | 0.00 | 0.00 | 0.00 | 47 | 1017.8 |
| 20260502184417 | 51 | 358 | 0.9 | 3.5 | 0.00 | 0.00 | 0.00 | 46 | 1018.2 |
| 20260502183913 | 51 | 198 | 2.6 | 3.5 | 0.00 | 0.00 | 0.00 | 48 | 1018.2 |
| 20260502183413 | 51 | 288 | 0.9 | 3.5 | 0.00 | 0.00 | 0.00 | 45 | 1017.8 |
| 20260502182910 | 51 | 261 | 2.6 | 4.3 | 0.00 | 0.00 | 0.00 | 43 | 1018.2 |
| 20260502182643 | 52 | 156 | 1.7 | 6.1 | 0.00 | 0.00 | 0.00 | 44 | 1018.2 |
| 20260502181911 | 53 | 2 | 2.6 | 6.1 | 0.00 | 0.00 | 0.00 | 42 | 1018.2 |
| 20260502181409 | 52 | 47 | 5.2 | 6.1 | 0.00 | 0.00 | 0.00 | 49 | 1018.2 |
| 20260502180909 | 51 | 49 | 2.6 | 5.2 | 0.00 | 0.00 | 0.00 | 46 | 1018.2 |
| 20260502180410 | 51 | 84 | 0.9 | 5.2 | 0.00 | 0.00 | 0.00 | 47 | 1018.2 |
| 20260502170402 | 50 | 287 | 2.6 | 9.6 | 0.00 | 0.00 | 0.00 | 51 | 1018.8 |
| 20260502163859 | 49 | 286 | 1.7 | 5.2 | 0.00 | 0.00 | 0.00 | 48 | 1018.8 |
| 20260502163359 | 49 | 353 | 4.3 | 5.2 | 0.00 | 0.00 | 0.00 | 46 | 1019.2 |
| 20260502162858 | 49 | 214 | 2.6 | 4.3 | 0.00 | 0.00 | 0.00 | 54 | 1018.8 |
| 20260502162408 | 49 | 45 | 1.7 | 6.1 | 0.00 | 0.00 | 0.00 | 53 | 1018.8 |
| 20260502162359 | 49 | 272 | 1.7 | 6.1 | 0.00 | 0.00 | 0.00 | 53 | 1018.8 |
| 20260502161357 | 49 | 213 | 1.7 | 5.2 | 0.00 | 0.00 | 0.00 | 55 | 1018.8 |
| 20260502160855 | 49 | 331 | 1.7 | 7.0 | 0.00 | 0.00 | 0.00 | 52 | 1019.2 |
| 20260502160356 | 48 | 185 | 2.6 | 7.0 | 0.00 | 0.00 | 0.00 | 55 | 1019.2 |
| 20260502160125 | 48 | 47 | 2.6 | 5.2 | 0.00 | 0.00 | 0.00 | 53 | 1019.2 |
| 20260502151851 | 48 | 324 | 1.7 | 5.2 | 0.00 | 0.00 | 0.00 | 52 | 1019.2 |
| 20260502151837 | 48 | 262 | 2.6 | 4.3 | 0.00 | 0.00 | 0.00 | 51 | 1019.2 |
| 20260502150852 | 47 | 259 | 1.7 | 5.2 | 0.00 | 0.00 | 0.00 | 52 | 1019.2 |
| 20260502150352 | 48 | 356 | 0.9 | 5.2 | 0.00 | 0.00 | 0.00 | 54 | 1019.2 |
| 20260502150108 | 47 | 50 | 2.6 | 5.2 | 0.00 | 0.00 | 0.00 | 55 | 1019.2 |
| 20260502130337 | 39 | 335 | 0.0 | 1.7 | 0.00 | 0.00 | 0.00 | 79 | 1019.2 |
| 20260502123344 | 36 | 6 | 0.0 | 1.7 | 0.00 | 0.00 | 0.00 | 89 | 1019.2 |
| 20260502123335 | 36 | 320 | 0.9 | 1.7 | 0.00 | 0.00 | 0.00 | 88 | 1018.8 |
| 20260502122553 | 35 | 299 | 1.7 | 1.7 | 0.00 | 0.00 | 0.00 | 89 | 1019.2 |
| 20260502121832 | 35 | 337 | 0.0 | 1.7 | 0.00 | 0.00 | 0.00 | 90 | 1019.2 |
| 20260502121332 | 34 | 332 | 0.9 | 1.7 | 0.00 | 0.00 | 0.00 | 91 | 1018.8 |
| 20260502120830 | 33 | 334 | 0.9 | 1.7 | 0.00 | 0.00 | 0.00 | 91 | 1018.8 |
| 20260502120600 | 33 | 358 | 0.0 | 1.7 | 0.00 | 0.00 | 0.00 | 92 | 1018.8 |
| 20260502115829 | 33 | 338 | 0.0 | 1.7 | 0.00 | 0.00 | 0.00 | 92 | 1018.8 |
| 20260502115601 | 32 | 340 | 0.9 | 1.7 | 0.00 | 0.00 | 0.00 | 93 | 1018.8 |
| 20260502114828 | 32 | 329 | 0.0 | 1.7 | 0.00 | 0.00 | 0.00 | 93 | 1018.8 |
| 20260502114330 | 32 | 18 | 0.0 | 0.9 | 0.00 | 0.00 | 0.00 | 94 | 1018.8 |
| 20260502113827 | 31 | 22 | 0.0 | 0.9 | 0.00 | 0.00 | 0.00 | 94 | 1018.8 |
| 20260502113329 | 31 | 326 | 0.0 | 1.7 | 0.00 | 0.00 | 0.00 | 94 | 1018.5 |
| 20260502113043 | 31 | 332 | 0.9 | 1.7 | 0.00 | 0.00 | 0.00 | 94 | 1018.5 |
| 20260502112327 | 30 | 337 | 0.9 | 1.7 | 0.00 | 0.00 | 0.00 | 94 | 1018.8 |
| 20260502111553 | 30 | 44 | 0.0 | 0.9 | 0.00 | 0.00 | 0.00 | 94 | 1018.5 |
| 20260502110828 | 30 | 290 | 0.0 | 1.7 | 0.00 | 0.00 | 0.00 | 94 | 1018.5 |
| 20260502110338 | 30 | 329 | 0.0 | 1.7 | 0.00 | 0.00 | 0.00 | 94 | 1018.5 |
| 20260502110049 | 30 | 0 | 0.9 | 1.7 | 0.00 | 0.00 | 0.00 | 94 | 1018.5 |
| 20260502105547 | 30 | 345 | 0.9 | 1.7 | 0.00 | 0.00 | 0.00 | 94 | 1018.5 |
| 20260502104822 | 30 | 25 | 0.9 | 1.7 | 0.00 | 0.00 | 0.00 | 94 | 1018.5 |
| 20260502104323 | 30 | 5 | 0.9 | 1.7 | 0.00 | 0.00 | 0.00 | 94 | 1018.5 |
| 20260502103824 | 30 | 12 | 0.9 | 1.7 | 0.00 | 0.00 | 0.00 | 94 | 1018.2 |
| 20260502103322 | 30 | 19 | 0.9 | 1.7 | 0.00 | 0.00 | 0.00 | 94 | 1018.2 |
| 20260502102819 | 30 | 15 | 0.9 | 0.9 | 0.00 | 0.00 | 0.00 | 94 | 1018.5 |
| 20260502102321 | 30 | 26 | 0.9 | 0.9 | 0.00 | 0.00 | 0.00 | 94 | 1018.2 |
| 20260502102040 | 30 | 31 | 0.0 | 0.9 | 0.00 | 0.00 | 0.00 | 94 | 1018.5 |
| 20260502101319 | 30 | 14 | 0.0 | 0.9 | 0.00 | 0.00 | 0.00 | 93 | 1018.2 |
| 20260502100818 | 30 | 17 | 0.0 | 0.9 | 0.00 | 0.00 | 0.00 | 93 | 1018.2 |
| 20260502100320 | 30 | 13 | 0.0 | 0.9 | 0.00 | 0.00 | 0.00 | 93 | 1018.5 |
| 20260502091314 | 31 | 22 | 0.0 | 0.9 | 0.00 | 0.00 | 0.00 | 93 | 1018.5 |
| 20260502090811 | 31 | 32 | 0.0 | 0.9 | 0.00 | 0.00 | 0.00 | 93 | 1018.2 |
| 20260502090314 | 31 | 45 | 0.0 | 0.9 | 0.00 | 0.00 | 0.00 | 93 | 1018.5 |
| 20260502071301 | 31 | 40 | 0.0 | 0.9 | 0.00 | 0.02 | 0.00 | 94 | 1018.5 |
| 20260502070800 | 31 | 299 | 0.0 | 1.7 | 0.00 | 0.02 | 0.00 | 93 | 1018.5 |
| 20260502070741 | 31 | 21 | 0.0 | 1.7 | 0.00 | 0.02 | 0.00 | 93 | 1018.5 |
| 20260502065801 | 31 | 20 | 0.9 | 0.9 | 0.00 | 0.02 | 0.00 | 93 | 1018.5 |
| 20260502065258 | 31 | 38 | 0.0 | 1.7 | 0.00 | 0.02 | 0.00 | 93 | 1018.5 |
| 20260502065015 | 31 | 25 | 0.0 | 1.7 | 0.00 | 0.02 | 0.00 | 93 | 1018.5 |
| 20260502064257 | 32 | 9 | 0.9 | 1.7 | 0.00 | 0.02 | 0.00 | 94 | 1018.5 |
| 20260502063756 | 32 | 34 | 0.0 | 0.9 | 0.00 | 0.02 | 0.00 | 94 | 1018.2 |
| 20260502063258 | 32 | 55 | 0.0 | 0.9 | 0.00 | 0.02 | 0.00 | 94 | 1018.8 |
| 20260502062754 | 32 | 38 | 0.0 | 0.9 | 0.00 | 0.02 | 0.00 | 94 | 1018.8 |
| 20260502062255 | 32 | 55 | 0.0 | 0.9 | 0.00 | 0.02 | 0.00 | 94 | 1018.8 |
| 20260502062014 | 32 | 87 | 0.0 | 0.9 | 0.00 | 0.02 | 0.00 | 94 | 1018.8 |
| 20260502061254 | 32 | 58 | 0.0 | 0.9 | 0.00 | 0.02 | 0.00 | 94 | 1018.8 |
| 20260502061013 | 32 | 38 | 0.0 | 0.9 | 0.00 | 0.02 | 0.00 | 94 | 1018.8 |
| 20260502060513 | 32 | 66 | 0.0 | 0.9 | 0.00 | 0.02 | 0.00 | 94 | 1018.8 |
| 20260502055753 | 32 | 36 | 0.9 | 0.9 | 0.00 | 0.02 | 0.00 | 94 | 1018.8 |
| 20260502055253 | 32 | 60 | 0.0 | 0.9 | 0.00 | 0.02 | 0.00 | 94 | 1018.8 |
| 20260502055017 | 32 | 103 | 0.0 | 1.7 | 0.00 | 0.02 | 0.00 | 94 | 1018.8 |
| 20260502054253 | 32 | 44 | 0.0 | 1.7 | 0.00 | 0.02 | 0.00 | 93 | 1018.8 |
| 20260502053752 | 32 | 20 | 0.9 | 0.9 | 0.00 | 0.02 | 0.00 | 93 | 1018.8 |
| 20260502053250 | 32 | 89 | 0.0 | 0.0 | 0.00 | 0.02 | 0.00 | 93 | 1018.8 |
| 20260502052751 | 32 | 103 | 0.0 | 0.9 | 0.00 | 0.02 | 0.00 | 93 | 1018.8 |
| 20260502052249 | 33 | 103 | 0.0 | 0.9 | 0.00 | 0.02 | 0.00 | 93 | 1018.8 |
| 20260502051748 | 33 | 118 | 0.0 | 0.9 | 0.00 | 0.02 | 0.00 | 93 | 1018.8 |
| 20260502051248 | 33 | 51 | 0.0 | 0.9 | 0.00 | 0.02 | 0.00 | 93 | 1018.8 |
| 20260502050746 | 33 | 97 | 0.0 | 1.7 | 0.00 | 0.02 | 0.00 | 93 | 1018.8 |
| 20260502050247 | 33 | 113 | 0.0 | 1.7 | 0.00 | 0.02 | 0.00 | 93 | 1018.8 |
| 20260502045746 | 33 | 43 | 0.9 | 1.7 | 0.00 | 0.02 | 0.02 | 93 | 1018.8 |
| 20260502045246 | 33 | 39 | 0.9 | 1.7 | 0.00 | 0.02 | 0.02 | 93 | 1018.8 |
| 20260502044745 | 33 | 69 | 0.0 | 0.9 | 0.00 | 0.02 | 0.02 | 92 | 1018.8 |
| 20260502044247 | 33 | 148 | 0.9 | 1.7 | 0.00 | 0.02 | 0.02 | 92 | 1018.8 |
| 20260502043745 | 33 | 103 | 0.0 | 1.7 | 0.00 | 0.02 | 0.02 | 92 | 1018.8 |
| 20260502043244 | 33 | 119 | 0.0 | 1.7 | 0.00 | 0.02 | 0.02 | 92 | 1018.8 |
| 20260502042756 | 33 | 119 | 0.0 | 1.7 | 0.00 | 0.03 | 0.02 | 92 | 1018.8 |
| 20260502042508 | 33 | 131 | 0.0 | 1.7 | 0.00 | 0.03 | 0.02 | 92 | 1018.8 |
| 20260502041743 | 33 | 65 | 0.9 | 1.7 | 0.00 | 0.04 | 0.02 | 91 | 1018.8 |
| 20260502041259 | 33 | 103 | 0.0 | 1.7 | 0.00 | 0.04 | 0.02 | 91 | 1018.8 |
| 20260502040741 | 33 | 125 | 0.9 | 1.7 | 0.00 | 0.06 | 0.02 | 91 | 1018.8 |
| 20260502040241 | 33 | 102 | 0.9 | 1.7 | 0.00 | 0.07 | 0.02 | 90 | 1018.5 |
| 20260502035741 | 34 | 156 | 0.0 | 1.7 | 0.00 | 0.09 | 0.02 | 90 | 1018.8 |
| 20260502035506 | 34 | 89 | 0.9 | 0.9 | 0.00 | 0.10 | 0.02 | 90 | 1018.8 |
| 20260502034740 | 34 | 103 | 0.0 | 0.9 | 0.00 | 0.13 | 0.02 | 89 | 1018.8 |
| 20260502034240 | 34 | 89 | 0.0 | 1.7 | 0.00 | 0.14 | 0.02 | 89 | 1018.5 |
| 20260502033737 | 34 | 103 | 0.0 | 1.7 | 0.00 | 0.14 | 0.02 | 89 | 1018.8 |
| 20260502033238 | 34 | 154 | 1.7 | 1.7 | 0.00 | 0.14 | 0.02 | 88 | 1018.5 |
| 20260502032737 | 34 | 107 | 0.0 | 1.7 | 0.00 | 0.14 | 0.02 | 87 | 1018.5 |
| 20260502032237 | 35 | 92 | 1.7 | 1.7 | 0.00 | 0.14 | 0.02 | 87 | 1018.5 |
| 20260502032004 | 35 | 83 | 0.9 | 1.7 | 0.00 | 0.14 | 0.02 | 87 | 1018.5 |
| 20260502031238 | 35 | 84 | 0.9 | 1.7 | 0.00 | 0.14 | 0.02 | 86 | 1018.5 |
| 20260502030736 | 35 | 78 | 0.9 | 1.7 | 0.00 | 0.14 | 0.02 | 85 | 1018.5 |
| 20260502030237 | 35 | 104 | 0.9 | 1.7 | 0.00 | 0.14 | 0.02 | 85 | 1018.5 |
| 20260502025735 | 35 | 93 | 0.9 | 1.7 | 0.00 | 0.14 | 0.02 | 84 | 1018.5 |
| 20260502025233 | 36 | 99 | 0.9 | 1.7 | 0.00 | 0.14 | 0.02 | 84 | 1018.5 |
| 20260502024732 | 36 | 121 | 0.9 | 2.6 | 0.00 | 0.14 | 0.02 | 84 | 1018.5 |
| 20260502024233 | 36 | 113 | 1.7 | 2.6 | 0.00 | 0.14 | 0.02 | 85 | 1018.5 |
| 20260502023735 | 36 | 54 | 1.7 | 2.6 | 0.00 | 0.14 | 0.02 | 85 | 1018.2 |
| 20260502023232 | 36 | 70 | 1.7 | 3.5 | 0.00 | 0.14 | 0.02 | 85 | 1018.2 |
| 20260502022731 | 36 | 113 | 1.7 | 3.5 | 0.00 | 0.14 | 0.02 | 85 | 1018.2 |
| 20260502022232 | 36 | 100 | 2.6 | 3.5 | 0.00 | 0.14 | 0.02 | 86 | 1018.2 |
| 20260502021730 | 36 | 92 | 1.7 | 3.5 | 0.00 | 0.14 | 0.02 | 86 | 1018.2 |
| 20260502021230 | 37 | 131 | 1.7 | 3.5 | 0.00 | 0.14 | 0.02 | 86 | 1018.2 |
| 20260502020731 | 37 | 113 | 1.7 | 4.3 | 0.00 | 0.14 | 0.02 | 86 | 1018.2 |
| 20260502020228 | 37 | 94 | 1.7 | 4.3 | 0.00 | 0.14 | 0.02 | 86 | 1018.2 |
| 20260502015729 | 37 | 106 | 1.7 | 5.2 | 0.00 | 0.14 | 0.02 | 85 | 1018.2 |
| 20260502015229 | 37 | 73 | 2.6 | 5.2 | 0.00 | 0.14 | 0.02 | 85 | 1018.2 |
| 20260502014727 | 37 | 85 | 3.5 | 7.0 | 0.00 | 0.14 | 0.02 | 85 | 1017.8 |
| 20260502014228 | 37 | 100 | 3.5 | 7.8 | 0.00 | 0.14 | 0.02 | 84 | 1017.8 |
| 20260502013727 | 38 | 72 | 7.0 | 9.6 | 0.00 | 0.14 | 0.02 | 83 | 1017.8 |
| 20260502013446 | 38 | 67 | 4.3 | 9.6 | 0.00 | 0.15 | 0.02 | 82 | 1017.8 |
| 20260502012725 | 38 | 71 | 4.3 | 7.8 | 0.00 | 0.15 | 0.02 | 82 | 1017.5 |
| 20260502012226 | 38 | 50 | 2.6 | 9.6 | 0.00 | 0.15 | 0.02 | 80 | 1017.5 |
| 20260502011722 | 38 | 71 | 6.1 | 11.3 | 0.00 | 0.15 | 0.02 | 79 | 1017.1 |
| 20260502011224 | 39 | 74 | 7.0 | 11.3 | 0.00 | 0.16 | 0.02 | 79 | 1017.1 |
| 20260502010724 | 39 | 72 | 3.5 | 9.6 | 0.00 | 0.16 | 0.02 | 79 | 1017.1 |
| 20260502010223 | 39 | 82 | 4.3 | 9.6 | 0.00 | 0.16 | 0.02 | 79 | 1017.1 |
| 20260502005721 | 40 | 74 | 6.1 | 10.4 | 0.00 | 0.16 | 0.02 | 79 | 1017.1 |
| 20260502005223 | 40 | 70 | 6.1 | 11.3 | 0.00 | 0.16 | 0.02 | 79 | 1017.1 |
| 20260502004721 | 41 | 91 | 3.5 | 11.3 | 0.00 | 0.16 | 0.02 | 79 | 1016.7 |
| 20260502004452 | 42 | 102 | 5.2 | 8.7 | 0.00 | 0.16 | 0.02 | 77 | 1017.1 |
| 20260502003720 | 42 | 79 | 7.0 | 9.6 | 0.00 | 0.16 | 0.02 | 75 | 1017.1 |
| 20260502003221 | 43 | 50 | 5.2 | 9.6 | 0.00 | 0.16 | 0.02 | 75 | 1016.7 |
| 20260502002719 | 44 | 62 | 3.5 | 7.0 | 0.00 | 0.16 | 0.02 | 75 | 1016.7 |
| 20260502002218 | 44 | 66 | 4.3 | 7.0 | 0.00 | 0.16 | 0.02 | 75 | 1016.4 |
| 20260502001721 | 44 | 94 | 3.5 | 6.1 | 0.00 | 0.16 | 0.02 | 74 | 1016.7 |
| 20260502001219 | 44 | 110 | 1.7 | 6.1 | 0.00 | 0.16 | 0.02 | 74 | 1016.7 |
| 20260502000717 | 44 | 89 | 3.5 | 5.2 | 0.00 | 0.16 | 0.02 | 73 | 1016.7 |
| 20260502000218 | 44 | 84 | 2.6 | 5.2 | 0.00 | 0.16 | 0.02 | 73 | 1016.4 |
| 20260501235715 | 44 | 91 | 2.6 | 4.3 | 0.00 | 0.16 | 0.02 | 73 | 1016.4 |
| 20260501235216 | 44 | 82 | 3.5 | 4.3 | 0.00 | 0.16 | 0.02 | 73 | 1016.7 |
| 20260501234715 | 44 | 94 | 1.7 | 3.5 | 0.00 | 0.16 | 0.02 | 72 | 1016.4 |
| 20260501234216 | 44 | 105 | 1.7 | 5.2 | 0.00 | 0.16 | 0.02 | 70 | 1016.4 |
| 20260501233713 | 45 | 95 | 2.6 | 5.2 | 0.00 | 0.16 | 0.02 | 70 | 1016.4 |
| 20260501233433 | 45 | 96 | 0.0 | 3.5 | 0.00 | 0.16 | 0.02 | 70 | 1016.4 |
| 20260501232940 | 45 | 75 | 2.6 | 3.5 | 0.00 | 0.16 | 0.02 | 70 | 1016.4 |